Change the Weather History Date:

Saturday, December 22, 2012

  Actual Average Record
Temperature  
Mean Temperature 33 °F 23 °F  
Max Temperature 47 °F 33 °F 62 °F (1954)
Min Temperature 18 °F 13 °F -29 °F (1983)
Degree Days  
Heating Degree Days 32 42  
Month to date heating degree days 803 913  
Since 1 July heating degree days 2694 3094  
Cooling Degree Days 0 0  
Month to date cooling degree days 0 0  
Year to date cooling degree days 390 177  
Moisture  
Dew Point 2 °F    
Average Humidity 31    
Maximum Humidity 46    
Minimum Humidity 15    
Precipitation  
Precipitation 0.00 in 0.01 in 0.18 in (1966)
Month to date precipitation 0.17 0.26  
Year to date precipitation 12.42 18.83  
Sea Level Pressure  
Sea Level Pressure 29.96 in    
Wind  
Wind Speed 4 mph (West)    
Max Wind Speed 14 mph    
Max Gust Speed 23 mph    
Visibility 10 miles    
Events      
T = Trace of Precipitation, MM = Missing Value Source: NWS Daily Summary

Daily Weather History Graph

Daily Weather History Graph

Search for Another Location

Airport or City:

Trip Planner

Search our weather history database for the weather conditions in past years. The results will help you decide how hot, cold, wet, or windy it might be!

Date:

Astronomy

Dec. 22, 2012 Rise Set
Actual Time 7:25 AM MST 4:21 PM MST
Civil Twilight 6:52 AM MST 4:53 PM MST
Nautical Twilight 6:16 AM MST 5:30 PM MST
Astronomical Twilight 5:41 AM MST 6:05 PM MST
Moon 12:45 PM MST (12/22) 2:07 AM MST (12/22)
Length of Visible Light 10h 01m
Length of Day
8h 55m
Waxing Gibbous, 74% of the Moon is Illuminated
Dec 22
Waxing Gibbous
Dec 28
Full
Jan 4
Last Quarter
Jan 11
New
Jan 18
First Quarter

Hourly Weather History & Observations

Time (MST) Temp. Windchill Dew Point Humidity Pressure Visibility Wind Dir Wind Speed Gust Speed Precip Events Conditions
12:53 AM 32.0 °F 23.6 °F -2.0 °F 23% 29.94 in 10.0 mi West 10.4 mph - N/A   Clear
1:53 AM 30.9 °F 23.5 °F -2.0 °F 24% 29.93 in 10.0 mi WNW 8.1 mph - N/A   Clear
2:53 AM 30.9 °F 22.2 °F -0.9 °F 26% 29.92 in 10.0 mi West 10.4 mph - N/A   Clear
3:53 AM 28.0 °F 20.0 °F -0.9 °F 29% 29.95 in 10.0 mi WSW 8.1 mph - N/A   Clear
4:53 AM 27.0 °F - -0.9 °F 30% 29.98 in 10.0 mi Calm Calm - N/A   Clear
5:53 AM 24.1 °F 17.0 °F -0.9 °F 34% 30.01 in 10.0 mi West 5.8 mph - N/A   Clear
6:53 AM 24.1 °F 19.7 °F -0.9 °F 34% 30.03 in 10.0 mi NNW 3.5 mph - N/A   Clear
7:53 AM 19.9 °F 14.9 °F -0.0 °F 42% 30.06 in 10.0 mi West 3.5 mph - N/A   Clear
8:53 AM 28.9 °F - 3.0 °F 33% 30.05 in 10.0 mi Calm Calm - N/A   Clear
9:53 AM 41.0 °F 39.0 °F -0.0 °F 18% 29.99 in 10.0 mi SW 3.5 mph - N/A   Clear
10:53 AM 43.0 °F - 1.0 °F 17% 29.98 in 10.0 mi Calm Calm - N/A   Clear
11:53 AM 45.0 °F - -0.0 °F 15% 29.95 in 10.0 mi Calm Calm - N/A   Clear
12:53 PM 46.0 °F 43.9 °F 1.0 °F 16% 29.91 in 10.0 mi Variable 4.6 mph - N/A   Clear
1:53 PM 45.0 °F 41.2 °F 1.9 °F 17% 29.92 in 10.0 mi Variable 6.9 mph - N/A   Clear
2:53 PM 42.1 °F 40.2 °F 5.0 °F 22% 29.93 in 10.0 mi South 3.5 mph - N/A   Clear
3:53 PM 37.0 °F 34.5 °F 7.0 °F 29% 29.96 in 10.0 mi South 3.5 mph - N/A   Clear
4:53 PM 30.9 °F - 7.0 °F 37% 29.99 in 10.0 mi Calm Calm - N/A   Clear
5:53 PM 26.1 °F 21.9 °F 7.0 °F 44% 30.01 in 10.0 mi North 3.5 mph - N/A   Clear
6:53 PM 25.0 °F 20.7 °F 6.1 °F 45% 30.01 in 10.0 mi North 3.5 mph - N/A   Clear
7:53 PM 25.0 °F - 5.0 °F 43% 30.01 in 10.0 mi Calm Calm - N/A   Clear
8:53 PM 21.9 °F - 3.9 °F 46% 29.96 in 10.0 mi Calm Calm - N/A   Clear
9:53 PM 25.0 °F 18.1 °F 6.1 °F 45% 29.90 in 10.0 mi SSW 5.8 mph - N/A   Clear
10:53 PM 24.1 °F 19.7 °F 6.1 °F 46% 29.87 in 10.0 mi WSW 3.5 mph - N/A   Clear
11:53 PM 24.1 °F 18.2 °F 6.1 °F 46% 29.83 in 10.0 mi SW 4.6 mph - N/A   Clear